Date String (YYYY-MM-DD hh:mm:ss) UTC,Instrument flags,absolute air pressure of the measurement (hPa),sample flow rate (lpm),inlet stack bypass flow (lpm),air temperature of the measurement (°C),ambient temperature measured by the external sensor (°C),aerosol sample conditioner tube jacket temperature (°C),OPC LED temperature (°C),internal box temperature (°C),relative humidity of the measurement (%),span deviation,mass concentration of particles derived from Lorenz-Mie calculation of OPC scattering (μg/m³),mass concentration of particles derived from Lorenz-Mie calculation of OPC scattering (μg/m³),mass concentration of particles derived from Lorenz-Mie calculation of OPC scattering (μg/m³)
DateTimeUTC,F1_M11,P_M11,Q1_M11,Q2_M11,T1_M11,T2_M11,T3_M11,T4_M11,T5_M11,U1_M11,ZSPAN_M11,X2_M11,X0_M11,X1_M11
2023-12-20 05:00:00,SystemResetWarning,0827.1,5.01,000.00,025.2,024.1,000.0,033.5,026.6,11.5,0000.0,0000.73,0001.60,0000.65
2023-12-20 05:01:00,SystemResetWarning,0827.1,5.01,000.00,025.2,024.1,000.0,033.5,026.5,11.5,0000.0,0000.73,0001.56,0000.65
2023-12-20 05:02:00,SystemResetWarning,0827.1,5.01,000.00,025.2,024.1,000.0,033.5,026.5,11.6,0000.0,0000.70,0001.05,0000.65
2023-12-20 05:03:00,SystemResetWarning,0827.0,5.00,000.00,025.2,024.1,000.0,033.5,026.6,11.5,0000.0,0000.71,0001.01,0000.66
2023-12-20 05:04:00,SystemResetWarning,0827.1,4.99,000.00,025.1,024.0,000.0,033.5,026.5,11.6,0000.0,0000.70,0000.89,0000.66
2023-12-20 05:05:00,SystemResetWarning,0827.1,4.99,000.00,025.1,024.0,000.0,033.5,026.6,11.6,0000.0,0000.70,0000.88,0000.65
2023-12-20 05:06:00,SystemResetWarning,0827.1,5.02,000.00,025.1,024.0,000.0,033.5,026.5,11.5,0000.0,0000.71,0000.92,0000.65
2023-12-20 05:07:00,SystemResetWarning,0827.1,5.00,000.00,025.1,024.0,000.0,033.5,026.5,11.5,0000.0,0000.76,0001.03,0000.65
2023-12-20 05:08:00,SystemResetWarning,0827.1,4.99,000.00,025.1,024.0,000.0,033.5,026.5,11.5,0000.0,0000.77,0001.09,0000.64
2023-12-20 05:09:00,SystemResetWarning,0827.0,5.00,000.00,025.1,024.0,000.0,033.5,026.5,11.5,0000.0,0000.78,0001.12,0000.64
2023-12-20 05:10:00,SystemResetWarning,0827.1,5.00,000.00,025.1,024.0,000.0,033.5,026.5,11.5,0000.0,0000.78,0001.13,0000.64
2023-12-20 05:11:00,SystemResetWarning,0827.1,5.01,000.00,025.1,024.0,000.0,033.5,026.4,11.5,0000.0,0000.82,0001.20,0000.65
2023-12-20 05:12:00,SystemResetWarning,0827.1,5.01,000.00,025.1,024.0,000.0,033.5,026.4,11.5,0000.0,0000.85,0001.29,0000.66
2023-12-20 05:13:00,SystemResetWarning,0827.1,4.99,000.00,025.1,024.0,000.0,033.5,026.5,11.5,0000.0,0000.87,0001.35,0000.66
2023-12-20 05:14:00,SystemResetWarning,0827.0,4.99,000.00,025.1,024.0,000.0,033.5,026.4,11.5,0000.0,0000.90,0001.41,0000.66
2023-12-20 05:15:00,SystemResetWarning,0827.0,5.01,000.00,025.1,024.0,000.0,033.5,026.4,11.5,0000.0,0000.91,0001.42,0000.66
2023-12-20 05:16:00,SystemResetWarning,0827.0,5.00,000.00,025.1,024.0,000.0,033.5,026.4,11.5,0000.0,0000.90,0001.40,0000.67
2023-12-20 05:17:00,SystemResetWarning,0827.0,5.00,000.00,025.1,024.0,000.0,033.5,026.4,11.5,0000.0,0000.90,0001.41,0000.67
2023-12-20 05:18:00,SystemResetWarning,0827.0,4.99,000.00,025.1,024.0,000.0,033.4,026.4,11.6,0000.0,0000.87,0001.32,0000.67
2023-12-20 05:19:00,SystemResetWarning,0827.0,4.99,000.00,025.0,024.0,000.0,033.4,026.4,11.6,0000.0,0000.84,0001.24,0000.68
2023-12-20 05:20:00,SystemResetWarning,0827.0,5.01,000.00,025.0,024.0,000.0,033.4,026.4,11.6,0000.0,0000.84,0001.21,0000.68
2023-12-20 05:21:00,SystemResetWarning,0827.0,5.01,000.00,025.0,024.0,000.0,033.4,026.4,11.6,0000.0,0000.84,0001.27,0000.68
2023-12-20 05:22:00,SystemResetWarning,0827.0,4.99,000.00,025.0,023.9,000.0,033.4,026.4,11.6,0000.0,0000.81,0001.23,0000.67
2023-12-20 05:23:00,SystemResetWarning,0827.0,4.98,000.00,025.0,023.9,000.0,033.4,026.3,11.7,0000.0,0000.82,0001.20,0000.67
2023-12-20 05:24:00,SystemResetWarning,0827.0,5.02,000.00,025.0,023.9,000.0,033.4,026.3,11.7,0000.0,0000.81,0001.15,0000.67
2023-12-20 05:25:00,SystemResetWarning,0827.0,5.00,000.00,025.0,023.9,000.0,033.4,026.3,11.7,0000.0,0000.79,0001.10,0000.67
2023-12-20 05:26:00,SystemResetWarning,0827.0,4.98,000.00,025.0,023.9,000.0,033.4,026.4,11.7,0000.0,0000.79,0001.10,0000.67
2023-12-20 05:27:00,SystemResetWarning,0827.0,5.01,000.00,025.0,023.9,000.0,033.4,026.4,11.7,0000.0,0000.81,0002.33,0000.68
2023-12-20 05:28:00,SystemResetWarning,0827.0,5.00,000.00,025.0,023.9,000.0,033.4,026.4,11.7,0000.0,0000.81,0002.95,0000.68
2023-12-20 05:29:00,SystemResetWarning,0827.0,5.00,000.00,025.0,023.9,000.0,033.4,026.4,11.7,0000.0,0000.82,0003.13,0000.69
2023-12-20 05:30:00,SystemResetWarning,0827.0,5.01,000.00,025.0,023.9,000.0,033.4,026.3,11.6,0000.0,0000.83,0003.14,0000.69
2023-12-20 05:31:00,SystemResetWarning,0827.0,5.00,000.00,025.0,023.9,000.0,033.4,026.3,11.7,0000.0,0000.83,0003.15,0000.69
2023-12-20 05:32:00,SystemResetWarning,0827.0,4.99,000.00,025.0,023.9,000.0,033.4,026.3,11.7,0000.0,0000.82,0003.07,0000.69
2023-12-20 05:33:00,SystemResetWarning,0827.0,4.99,000.00,025.0,023.9,000.0,033.4,026.3,11.7,0000.0,0000.82,0003.04,0000.69
2023-12-20 05:34:00,SystemResetWarning,0827.0,5.02,000.00,025.0,023.9,000.0,033.4,026.3,11.7,0000.0,0000.80,0003.00,0000.69
2023-12-20 05:35:00,SystemResetWarning,0827.0,5.00,000.00,024.9,023.9,000.0,033.4,026.3,11.7,0000.0,0000.80,0003.01,0000.71
2023-12-20 05:36:00,SystemResetWarning,0827.0,4.99,000.00,024.9,023.9,000.0,033.3,026.3,11.8,0000.0,0000.81,0003.03,0000.73
2023-12-20 05:37:00,SystemResetWarning,0827.0,5.02,000.00,024.9,023.9,000.0,033.3,026.3,11.7,0000.0,0000.81,0003.01,0000.73
2023-12-20 05:38:00,SystemResetWarning,0827.0,4.99,000.00,024.9,023.9,000.0,033.3,026.3,11.7,0000.0,0000.79,0001.78,0000.73
2023-12-20 05:39:00,SystemResetWarning,0827.0,4.99,000.00,024.9,023.9,000.0,033.3,026.3,11.7,0000.0,0000.78,0001.18,0000.72
2023-12-20 05:40:00,SystemResetWarning,0827.0,5.01,000.00,024.9,023.9,000.0,033.3,026.2,11.7,0000.0,0000.77,0000.95,0000.72
2023-12-20 05:41:00,SystemResetWarning,0827.0,5.01,000.00,024.9,023.9,000.0,033.3,026.2,11.7,0000.0,0000.77,0000.94,0000.72
2023-12-20 05:42:00,SystemResetWarning,0826.9,5.01,000.00,024.9,023.9,000.0,033.3,026.2,11.7,0000.0,0000.78,0000.97,0000.71
2023-12-20 05:43:00,SystemResetWarning,0827.0,5.00,000.00,024.9,023.9,000.0,033.3,026.3,11.7,0000.0,0000.80,0001.04,0000.72
2023-12-20 05:44:00,SystemResetWarning,0827.0,4.99,000.00,024.9,023.9,000.0,033.3,026.2,11.7,0000.0,0000.79,0001.01,0000.72
2023-12-20 05:45:00,SystemResetWarning,0827.0,5.00,000.00,024.9,023.9,000.0,033.3,026.2,11.7,0000.0,0000.79,0001.02,0000.72
2023-12-20 05:46:00,SystemResetWarning,0827.0,5.01,000.00,024.9,023.8,000.0,033.3,026.2,11.7,0000.0,0000.78,0001.00,0000.71
2023-12-20 05:47:00,SystemResetWarning,0827.0,5.00,000.00,024.9,023.8,000.0,033.3,026.2,11.8,0000.0,0000.80,0001.05,0000.69
2023-12-20 05:48:00,SystemResetWarning,0826.9,4.99,000.00,024.9,023.8,000.0,033.3,026.2,11.8,0000.0,0000.82,0001.11,0000.69
2023-12-20 05:49:00,SystemResetWarning,0827.0,5.00,000.00,024.9,023.8,000.0,033.3,026.2,11.7,0000.0,0000.83,0001.16,0000.69
2023-12-20 05:50:00,SystemResetWarning,0827.0,5.01,000.00,024.9,023.8,000.0,033.3,026.2,11.7,0000.0,0000.85,0001.19,0000.69
2023-12-20 05:51:00,SystemResetWarning,0827.0,5.01,000.00,024.9,023.8,000.0,033.3,026.2,11.8,0000.0,0000.86,0001.30,0000.68
2023-12-20 05:52:00,SystemResetWarning,0827.0,4.99,000.00,024.8,023.8,000.0,033.3,026.2,11.7,0000.0,0000.87,0001.35,0000.68
2023-12-20 05:53:00,SystemResetWarning,0827.0,4.99,000.00,024.8,023.8,000.0,033.2,026.3,11.7,0000.0,0000.86,0001.33,0000.68
2023-12-20 05:54:00,SystemResetWarning,0827.0,5.00,000.00,024.8,023.8,000.0,033.2,026.3,11.7,0000.0,0000.85,0001.29,0000.67
2023-12-20 05:55:00,SystemResetWarning,0826.9,5.01,000.00,024.8,023.8,000.0,033.2,026.3,11.7,0000.0,0000.85,0001.29,0000.67
2023-12-20 05:56:00,SystemResetWarning,0826.9,5.00,000.00,024.8,023.8,000.0,033.2,026.2,11.8,0000.0,0000.85,0001.31,0000.67
2023-12-20 05:57:00,SystemResetWarning,0827.0,4.98,000.00,024.8,023.8,000.0,033.2,026.3,11.8,0000.0,0000.85,0001.52,0000.66
2023-12-20 05:58:00,SystemResetWarning,0827.0,5.00,000.00,024.9,023.8,000.0,033.2,026.2,11.7,0000.0,0000.80,0001.45,0000.65
2023-12-20 05:59:00,SystemResetWarning,0827.0,5.02,000.00,024.9,023.8,000.0,033.2,026.3,11.7,0000.0,0000.78,0001.39,0000.65
